{"data":{"norad_id":69917,"intl_designator":"2026-156BA","name":"BOHR","alt_names":[],"object_type":"PAYLOAD","status":"ACTIVE","operator":null,"country":"US","launch_date":"2026-07-07","launch_site_code":"AFWTR","launch_vehicle":null,"mission":null,"orbit_class":"UNKNOWN","rcs_meters":null,"size_class":null,"mass_kg":null,"dimensions":null,"purposes":[],"wikipedia_slug":null,"has_3d_model":false,"image_url":null,"decayed_at":null,"tle_current":{"epoch":"2026-09-19T11:41:20.944608Z","epoch_age_seconds":105340,"freshness":"FRESH","line1":"1 69917U 26156BA  26262.48704797  .00001239  00000+0  12554-3 0  9990","line2":"2 69917  97.7489 161.8258 0008180 279.3516  80.6778 14.92695615 11061","mean_motion":14.92695615,"eccentricity":0.000818,"inclination_deg":97.7489,"raan_deg":161.8258,"arg_perigee_deg":279.3516,"mean_anomaly_deg":80.6778,"bstar":0.00012554,"rev_number":1106,"period_min":96.46976821862,"perigee_km":583.83499082416,"apogee_km":595.23410147366,"semimajor_km":6967.6715461489,"source":"CELESTRAK","updated_at":"2026-09-20T09:00:25.181248Z"}}}